Date String (YYYY-MM-DD hh:mm:ss) UTC,Instrument flags,Ambient pressure (hPa),Sample flow (lpm),Bypass flow (lpm),Sample temperature (°C),Ambient temperature (°C),ASC tube jacket temperature (°C),LED temperature (°C),Box temperature (°C),Sample RH (%),Span deviation,Mass concentration (μg/m³),Mass concentration (μg/m³),Mass concentration (μg/m³)
DateTimeUTC,F1_M11,P_M11,Q1_M11,Q2_M11,T1_M11,T2_M11,T3_M11,T4_M11,T5_M11,U1_M11,ZSPAN_M11,X0_M11,X2_M11,X1_M11
2021-10-17 17:00:00,,0830.0,5.00,0.00,29.9,29.2,00.0,38.8,31.7,10.2,0000.0,0011.92,0003.44,0002.54
2021-10-17 17:01:00,,0829.9,4.98,0.00,30.0,29.2,00.0,38.9,31.8,10.1,0000.0,0012.27,0003.46,0002.53
2021-10-17 17:02:00,,0829.9,5.01,0.00,30.0,29.3,00.0,38.9,31.8,10.2,0000.0,0012.16,0003.45,0002.51
2021-10-17 17:03:00,,0829.9,5.02,0.00,30.0,29.3,00.0,38.9,31.8,10.1,0000.0,0011.81,0003.48,0002.50
2021-10-17 17:04:00,,0829.9,5.00,0.00,30.0,29.3,00.0,38.9,31.9,10.0,0000.0,0012.29,0003.49,0002.47
2021-10-17 17:05:00,,0829.9,5.00,0.00,30.0,29.3,00.0,39.0,31.9,10.0,0000.0,0013.43,0003.46,0002.44
2021-10-17 17:06:00,,0829.9,4.99,0.00,30.0,29.3,00.0,39.0,31.9,09.8,0000.0,0012.78,0003.40,0002.42
2021-10-17 17:07:00,,0829.9,4.99,0.00,30.1,29.3,00.0,39.0,31.9,09.9,0000.0,0012.16,0003.39,0002.42
2021-10-17 17:08:00,,0829.9,5.00,0.00,30.1,29.4,00.0,39.0,31.9,09.9,0000.0,0012.24,0003.40,0002.40
2021-10-17 17:09:00,,0829.9,5.01,0.00,30.1,29.4,00.0,39.0,32.0,09.9,0000.0,0011.52,0003.40,0002.40
2021-10-17 17:10:00,,0829.9,5.00,0.00,30.1,29.4,00.0,39.0,32.0,10.0,0000.0,0010.76,0003.38,0002.38
2021-10-17 17:11:00,,0829.9,5.01,0.00,30.1,29.4,00.0,39.1,32.0,09.9,0000.0,0010.37,0003.35,0002.38
2021-10-17 17:12:00,,0829.8,4.99,0.00,30.2,29.5,00.0,39.1,32.0,09.7,0000.0,0009.91,0003.29,0002.37
2021-10-17 17:13:00,,0829.8,5.01,0.00,30.2,29.5,00.0,39.1,32.0,09.7,0000.0,0010.20,0003.26,0002.35
2021-10-17 17:14:00,,0829.8,5.00,0.00,30.2,29.5,00.0,39.1,32.0,09.7,0000.0,0010.05,0003.22,0002.35
2021-10-17 17:15:00,,0829.8,5.00,0.00,30.2,29.5,00.0,39.1,32.0,09.9,0000.0,0010.40,0003.20,0002.37
2021-10-17 17:16:00,,0829.8,4.99,0.00,30.2,29.5,00.0,39.2,32.1,10.1,0000.0,0009.29,0003.23,0002.36
2021-10-17 17:17:00,,0829.8,5.01,0.00,30.3,29.5,00.0,39.2,32.1,10.3,0000.0,0008.74,0003.24,0002.36
2021-10-17 17:18:00,,0829.8,5.00,0.00,30.3,29.6,00.0,39.2,32.1,10.4,0000.0,0008.71,0003.23,0002.35
2021-10-17 17:19:00,,0829.8,5.01,0.00,30.3,29.6,00.0,39.2,32.1,10.1,0000.0,0008.54,0003.19,0002.34
2021-10-17 17:20:00,,0829.8,5.01,0.00,30.3,29.6,00.0,39.2,32.1,09.9,0000.0,0008.56,0003.16,0002.35
2021-10-17 17:21:00,,0829.8,5.00,0.00,30.3,29.6,00.0,39.3,32.1,09.8,0000.0,0008.54,0003.12,0002.34
2021-10-17 17:22:00,,0829.8,5.00,0.00,30.4,29.6,00.0,39.3,32.2,09.6,0000.0,0009.12,0003.13,0002.34
2021-10-17 17:23:00,,0829.7,5.01,0.00,30.4,29.7,00.0,39.3,32.2,09.8,0000.0,0009.32,0003.16,0002.36
2021-10-17 17:24:00,,0829.7,4.99,0.00,30.4,29.7,00.0,39.3,32.2,09.8,0000.0,0009.17,0003.17,0002.37
2021-10-17 17:25:00,,0829.7,4.99,0.00,30.4,29.7,00.0,39.3,32.2,10.0,0000.0,0009.18,0003.19,0002.37
2021-10-17 17:26:00,,0829.6,5.01,0.00,30.4,29.7,00.0,39.4,32.2,09.9,0000.0,0008.25,0003.18,0002.35
2021-10-17 17:27:00,,0829.6,5.01,0.00,30.4,29.8,00.0,39.4,32.3,09.9,0000.0,0007.76,0003.17,0002.35
2021-10-17 17:28:00,,0829.8,5.00,0.00,30.5,29.8,00.0,39.4,32.3,09.7,0000.0,0007.79,0003.16,0002.35
2021-10-17 17:29:00,,0829.8,4.99,0.00,30.5,29.8,00.0,39.4,32.3,09.8,0000.0,0007.79,0003.15,0002.35
2021-10-17 17:30:00,,0829.8,5.01,0.00,30.5,29.8,00.0,39.4,32.3,09.8,0000.0,0007.83,0003.15,0002.34
2021-10-17 17:31:00,,0829.8,5.01,0.00,30.5,29.8,00.0,39.5,32.3,09.9,0000.0,0007.75,0003.16,0002.31
2021-10-17 17:32:00,,0829.6,5.00,0.00,30.6,29.9,00.0,39.5,32.4,10.3,0000.0,0007.67,0003.21,0002.30
2021-10-17 17:33:00,,0829.6,5.00,0.00,30.6,29.9,00.0,39.5,32.4,10.4,0000.0,0006.98,0003.22,0002.28
2021-10-17 17:34:00,,0829.6,5.01,0.00,30.6,29.9,00.0,39.5,32.4,10.5,0000.0,0006.88,0003.23,0002.26
2021-10-17 17:35:00,,0829.6,5.01,0.00,30.6,29.9,00.0,39.5,32.4,10.4,0000.0,0007.55,0003.26,0002.26
2021-10-17 17:36:00,,0829.6,5.00,0.00,30.6,29.9,00.0,39.6,32.4,10.3,0000.0,0007.37,0003.27,0002.28
2021-10-17 17:37:00,,0829.5,5.00,0.00,30.6,29.9,00.0,39.6,32.4,10.4,0000.0,0007.45,0003.31,0002.29
2021-10-17 17:38:00,,0829.5,5.00,0.00,30.7,30.0,00.0,39.6,32.5,10.5,0000.0,0007.51,0003.34,0002.31
2021-10-17 17:39:00,,0829.6,5.00,0.00,30.7,30.0,00.0,39.6,32.5,10.4,0000.0,0007.49,0003.35,0002.33
2021-10-17 17:40:00,,0829.6,5.01,0.00,30.7,30.0,00.0,39.7,32.5,10.1,0000.0,0007.62,0003.38,0002.36
2021-10-17 17:41:00,,0829.6,5.00,0.00,30.7,30.0,00.0,39.7,32.5,10.0,0000.0,0007.94,0003.41,0002.39
2021-10-17 17:42:00,,0829.6,4.99,0.00,30.7,30.0,00.0,39.7,32.5,10.1,0000.0,0007.87,0003.42,0002.43
2021-10-17 17:43:00,,0829.5,5.00,0.00,30.8,30.0,00.0,39.7,32.5,10.1,0000.0,0007.97,0003.45,0002.47
2021-10-17 17:44:00,,0829.5,5.00,0.00,30.8,30.1,00.0,39.7,32.6,10.1,0000.0,0008.12,0003.47,0002.48
2021-10-17 17:45:00,,0829.5,4.99,0.00,30.8,30.1,00.0,39.7,32.6,10.0,0000.0,0008.32,0003.47,0002.48
2021-10-17 17:46:00,,0829.5,5.00,0.00,30.8,30.1,00.0,39.8,32.6,10.0,0000.0,0008.50,0003.45,0002.48
2021-10-17 17:47:00,,0829.5,4.99,0.00,30.8,30.1,00.0,39.8,32.6,09.9,0000.0,0008.97,0003.43,0002.45
2021-10-17 17:48:00,,0829.5,5.01,0.00,30.9,30.2,00.0,39.8,32.6,09.8,0000.0,0009.61,0003.42,0002.41
2021-10-17 17:49:00,,0829.5,4.99,0.00,30.9,30.2,00.0,39.8,32.7,09.7,0000.0,0009.52,0003.37,0002.37
2021-10-17 17:50:00,,0829.5,5.00,0.00,30.9,30.2,00.0,39.8,32.7,09.7,0000.0,0009.50,0003.35,0002.34
2021-10-17 17:51:00,,0829.5,4.99,0.00,30.9,30.2,00.0,39.9,32.7,09.8,0000.0,0009.30,0003.32,0002.28
2021-10-17 17:52:00,,0829.5,5.00,0.00,30.9,30.2,00.0,39.9,32.7,09.7,0000.0,0009.03,0003.29,0002.24
2021-10-17 17:53:00,,0829.5,5.01,0.00,30.9,30.3,00.0,39.9,32.7,09.6,0000.0,0009.08,0003.27,0002.20
2021-10-17 17:54:00,,0829.5,5.01,0.00,31.0,30.3,00.0,39.9,32.8,09.5,0000.0,0008.96,0003.21,0002.15
2021-10-17 17:55:00,,0829.4,5.00,0.00,31.0,30.3,00.0,39.9,32.8,09.5,0000.0,0008.89,0003.19,0002.13
2021-10-17 17:56:00,,0829.4,5.00,0.00,31.0,29.2,00.0,40.0,32.5,09.5,0000.0,0008.75,0003.18,0002.13
2021-10-17 17:57:00,,0829.3,5.00,0.00,30.8,27.1,00.0,39.9,32.0,09.6,0000.0,0008.08,0003.18,0002.15
2021-10-17 17:58:00,,0829.2,4.99,0.00,30.6,26.4,00.0,39.9,31.8,09.7,0000.0,0007.83,0003.19,0002.16
2021-10-17 17:59:00,,0829.2,5.01,0.00,30.5,26.8,00.0,39.8,31.8,09.8,0000.0,0007.79,0003.18,0002.20
